Location: Bannatyne
(13.0833°N, 59.5333°W)
Time: 17:52:12
(UTC+00:00)

deb Explorer IX - Pass Details

Date: 28 January 2020
Orbit: 549 x 1099 km, 38.8° (Epoch: 21 February)

Event Time Altitude Azimuth Distance (km) Brightness Sun altitude
Rises 06:55:24 0° 315° (NW) 3,871 - -50.2°
Reaches altitude 10° 06:58:20 10° 320° (NW) 2,878 - -49.5°
Maximum altitude 07:05:09 52° 35° (NE) 1,212 - -47.8°
Exits shadow 07:10:22 14° 108° (ESE) 2,285 ? -46.6°
Drops below altitude 10° 07:11:12 10° 111° (ESE) 2,563 ? -46.4°
Sets 07:13:40 0° 116° (ESE) 3,417 ? -45.8°
